Página principal
METAR-TAF:

METAR-TAF

Aeroportos :

Bojnourd, Irão

latitude: 37-28N, longitude: 057-20E, altura: 1074 m

Observação actual do tempo

O boletim foi feito há 23 minutos, às 13:00 UTC
Vento 14 kt de oeste
Temperatura 24°C
Humidade 34%
Pressão 1019 hPa
Visibilidade 10 km ou mais
Poucas nuvensa uma altura de 5000 ft, Cumulonimbus.
Nuvens dispersasa uma altura de 10000 ft
Nuvens fragmentadasa uma altura de 19000 ft

METAR: OIMN 241300Z 28014KT 9999 FEW050CB SCT100 BKN190 24/07 Q1019

Hora: 16:53 (13:23 UTC)


TAF: em falta

Observações e previsões do tempo de mais de 4000 aeroportos (mensagens METAR e TAF).

As estações disponíveis são os pontos amarelos e vermelhos sobre o mapa.

Mova o rato sobre o mapa para ver o nome da estação.

Depois clique no ponto para visualizar as observações e previsões meteorológicas.

Para alterar o mapa : clique nos botões verdes com uma cruz preta para aumentar o zoom; no botão verde com uma pitada de zoom; ou nas setas verdes para mapas adjacentes.


METAR-TAF: